Flag for Malaysia Weather past 2 weeks in Kuala Lumpur, Malaysia

Now
90 °F

Broken clouds.


Feels Like: 103 °F
Forecast: 74 / 87 °F
Wind: 15 mph from West

Location: Sultan Abdul Aziz Shah-Subang


UV Index: 7 (High)

Visibility: N/A


Pressure: 29.77 "Hg

Humidity: 67%

Dew point: 77 °F

Location of Kuala LumpurLocation

Historic Weather in Kuala Lumpur

°F

Kuala Lumpur temperature yesterday

Maximum temperature yesterday: 91 °F (at 2:00 PM)
Minimum temperature yesterday: 77 °F (at 2:00 AM)
Average temperature yesterday: 83 °F

Past Weeks' High & Low Weather Summary

 TemperatureHumidityPressure
High95 °F (Apr 7, 3:00 PM)100% (Apr 4, 3:00 AM)29.95 "Hg (Apr 4, 3:00 AM)
Low73 °F (Apr 12, 2:00 AM)44% (Apr 7, 3:00 PM)29.68 "Hg (Apr 2, 5:00 PM)
Average82 °F81%29.84 "Hg
* Reported Apr 2 2:00 PM — Apr 17 2:00 PM, Kuala Lumpur, Weather by CustomWeather, © 2014

Note: Actual official high and low records may vary slightly from our data, if they occured in-between our weather recording intervals... More about our weather records

Advertising

Historic Weather Conditions — Data for Previous 24 hours

 ConditionsComfort  
Time TempWeatherWind HumidityBarometerVisibility
2:00 PM
Apr 17
90 °FBroken clouds.15 mph67%29.77 "HgN/A
1:00 PM91 °FBroken clouds.6 mph59%29.80 "HgN/A
12:00 PM90 °FBroken clouds.5 mph59%29.83 "HgN/A
11:00 AM88 °FPartly sunny.5 mph66%29.83 "HgN/A
10:00 AM86 °FPartly sunny.2 mph75%29.86 "HgN/A
9:00 AM81 °FPartly sunny.2 mph84%29.83 "HgN/A
8:00 AM77 °FPartly sunny.No wind94%29.80 "Hg4 mi
7:00 AM77 °FPassing clouds.1 mph94%29.80 "Hg4 mi
6:00 AM77 °FPassing clouds.1 mph94%29.77 "Hg4 mi
5:00 AM77 °FPassing clouds.1 mph94%29.77 "Hg4 mi
4:00 AM79 °FPassing clouds.1 mph89%29.77 "Hg4 mi
3:00 AM79 °FPassing clouds.1 mph89%29.80 "Hg5 mi
2:00 AM81 °FPartly cloudy.2 mph84%29.80 "Hg4 mi
1:00 AM79 °FPartly cloudy.1 mph89%29.83 "Hg5 mi
12:00 AM79 °FPartly cloudy.1 mph89%29.86 "Hg5 mi
11:00 PM
Apr 16
81 °FPassing clouds.3 mph84%29.83 "Hg5 mi
10:00 PM81 °FPassing clouds.2 mph84%29.83 "Hg5 mi
9:00 PM81 °FPassing clouds.3 mph84%29.80 "Hg6 mi
8:00 PM81 °FPartly cloudy.1 mph84%29.77 "HgN/A
7:00 PM82 °FBroken clouds.3 mph79%29.77 "HgN/A
6:00 PM84 °FBroken clouds.3 mph74%29.74 "HgN/A
5:00 PM88 °FThunderstorms. Broken clouds.7 mph66%29.74 "HgN/A
4:00 PM91 °FBroken clouds.13 mph56%29.74 "HgN/A
3:00 PM91 °FBroken clouds.13 mph56%29.74 "HgN/A
Weather by CustomWeather, © 2014

See weather overview